Tracking 30995 objects as of 5-Jul-2025
HD Live streaming from Space Station
objects crossing your sky now

AUREOLE 2

Track AUREOLE 2 now!
10-day predictions
AUREOLE 2 is classified as:


NORAD ID: 7003
Int'l Code: 1973-107A
Perigee: 336.5 km
Apogee: 596.3 km
Inclination: 73.9 °
Period: 93.8 minutes
Semi major axis: 6837 km
RCS: 2.1042 m2 (large)
Launch date: December 26, 1973
Source: France (FR)
Launch site: PLESETSK MISSILE AND SPACE COMPLEX (PKMTR)
Your satellite tracking list
HELLAS SAT 1 (DFS 3)
Track 1 satellite(s)




NASA's NSSDC Master Catalog

Two Line Element Set (TLE):
1 07003U 73107A   25186.52211499  .00019285  00000-0  30373-3 0  9997
2 07003  73.9044 224.6950 0189990 250.0666 107.9986 15.35565904650732
Source of the keplerian elements: AFSPC